Theta_e
333 333 332 332 332 332 332 332 331 331 331 331 331 331 331 331 331 331 331 331 331 331 331 331 331 331 331 331 331 331 331 331 331 331 330 330 330 330 330 330 330 330 330 330 329 330 330 330 330 330 330 329 329 329 329 330 330 329 328 328 329 329 330
333 333 332 331 331 331 330 330 330 330 330 330 330 330 330 330 330 331 331 331 331 331 330 330 331 331 330 330 330 330 330 329 329 329 329 329 329 329 329 329 329 329 329 329 329 329 330 329 329 329 329 330 329 328 329 330 330 330 328 328 328 329 329
332 332 332 331 330 329 329 329 329 329 328 328 329 329 329 329 330 330 331 331 331 330 330 329 330 330 329 329 329 329 328 328 328 328 328 328 328 328 328 327 327 328 329 329 329 329 329 329 329 329 329 329 329 329 329 329 329 329 329 329 329 329 329
329 329 330 329 329 328 328 328 328 327 327 327 328 328 328 329 330 330 330 330 330 330 329 329 328 328 327 327 328 328 328 328 328 328 328 328 328 327 327 326 326 326 327 328 328 328 328 329 329 329 329 329 329 329 329 329 328 329 329 329 329 329 328
326 327 326 326 326 325 325 325 326 326 327 327 327 326 326 328 328 329 329 329 329 328 328 327 327 327 327 327 327 327 327 327 327 327 327 327 327 327 326 326 325 325 326 327 328 328 328 328 328 329 329 329 328 328 329 328 327 328 329 329 328 328 328
324 324 323 323 323 322 322 322 322 323 323 323 324 324 326 326 327 326 326 326 326 325 325 325 326 327 328 327 327 327 326 326 325 326 326 325 326 326 325 325 324 324 324 326 327 328 327 327 328 329 328 328 328 328 328 327 326 327 328 328 328 328 328
322 322 322 321 321 320 319 318 319 319 320 320 321 322 323 323 323 323 323 323 323 323 324 325 326 326 327 327 326 325 324 323 323 324 324 324 324 324 324 324 323 323 324 325 327 327 327 327 327 328 328 328 328 328 328 327 327 327 327 326 326 326 328
319 319 319 318 318 318 318 318 318 319 319 319 319 319 320 320 321 321 321 321 322 322 323 323 324 325 325 324 323 322 322 323 324 324 324 324 324 324 324 324 323 324 325 325 326 327 328 327 328 328 328 328 328 328 327 327 327 327 325 324 323 324 326
316 316 315 315 315 316 316 316 317 318 318 318 318 319 319 319 319 319 319 320 320 321 322 322 322 323 323 322 322 322 323 323 323 324 324 324 324 324 325 325 324 324 325 325 326 327 328 328 327 328 328 328 328 328 327 327 327 326 325 324 324 324 326
314 314 314 314 314 314 314 315 316 317 317 317 317 318 319 319 319 319 319 319 319 319 320 320 321 321 322 323 323 323 323 323 324 324 324 324 324 323 324 325 326 325 325 325 326 327 327 328 328 328 328 328 328 327 327 327 327 327 326 325 325 325 326
313 313 312 312 312 312 313 314 315 316 316 316 317 317 318 318 319 319 319 318 318 318 318 319 319 320 321 322 323 322 322 323 324 324 324 324 324 324 324 324 325 325 324 324 326 326 327 328 328 328 328 328 328 327 327 328 328 328 327 326 325 324 324
312 312 311 311 311 311 312 312 313 314 315 316 317 317 318 318 318 317 317 317 317 317 317 317 317 318 318 320 321 321 322 323 323 323 323 323 323 323 324 324 324 324 324 324 325 326 327 327 328 328 328 328 328 328 328 328 328 328 327 327 326 325 323
311 310 310 310 310 310 311 311 312 313 313 314 315 315 316 316 316 317 316 316 316 316 315 316 316 316 317 318 319 320 321 321 321 321 321 321 322 322 323 324 324 324 324 325 325 326 327 327 328 328 328 327 328 329 329 328 328 328 327 327 326 325 323
310 310 310 309 309 310 311 311 311 312 312 312 312 313 314 314 315 315 314 314 314 313 313 314 314 315 316 317 318 319 319 319 319 319 319 319 320 322 323 323 324 325 325 325 326 326 326 327 327 327 327 327 328 329 328 328 328 327 327 327 326 325 323
310 311 311 310 310 310 311 311 311 311 311 311 311 312 312 313 313 313 312 312 312 312 312 312 312 313 314 316 317 318 318 319 319 319 318 318 319 322 323 323 324 325 325 325 326 326 326 327 327 327 327 328 328 328 328 327 327 327 327 327 327 326 325
308 309 309 309 309 309 310 310 310 310 311 311 311 311 311 311 312 311 312 311 311 311 312 311 312 312 313 314 315 316 317 318 318 318 318 318 320 322 324 324 324 325 325 325 325 326 326 326 327 327 328 329 328 328 327 327 327 327 327 327 327 327 326
305 305 306 306 306 306 306 307 307 308 308 309 309 310 310 310 310 310 310 310 310 310 310 310 310 311 311 312 313 314 315 316 317 318 318 318 320 323 324 325 324 325 325 325 325 325 325 325 325 326 327 328 329 329 328 327 327 327 327 327 327 326 327
303 303 303 303 303 303 303 303 304 304 305 305 306 307 307 308 308 308 308 308 307 307 308 308 308 309 310 310 311 312 313 315 316 317 318 318 319 322 324 325 325 325 325 325 326 326 325 325 325 325 326 327 329 329 328 328 328 327 327 326 326 326 326
302 302 302 302 301 300 300 300 301 302 302 303 303 304 304 305 305 305 305 305 305 305 305 306 306 307 308 308 309 310 311 313 314 316 317 318 319 321 323 324 324 325 325 325 326 326 325 325 325 326 327 328 328 328 328 328 328 327 326 325 326 326 326
302 301 301 300 299 297 297 297 298 299 300 300 300 300 300 301 302 302 303 303 303 304 304 305 305 305 306 306 307 308 309 311 312 314 315 316 318 320 322 323 323 324 325 325 326 326 326 325 326 326 327 327 327 328 328 328 327 327 326 326 325 326 326
301 300 299 297 296 295 295 296 296 297 297 297 297 297 297 298 298 299 300 301 302 302 303 303 304 304 304 305 306 307 308 309 310 312 313 315 316 318 320 321 322 322 324 325 325 325 325 326 326 326 327 327 326 327 327 327 327 327 327 326 326 325 326
300 299 297 295 294 294 294 295 295 295 295 295 295 295 295 295 296 296 297 298 299 300 301 301 301 302 302 303 304 305 306 307 308 310 311 312 314 315 317 319 320 321 322 324 324 324 325 325 325 325 326 326 326 326 327 327 326 326 326 326 326 326 326
298 296 295 294 294 294 294 294 294 294 294 294 294 294 294 294 294 295 295 295 296 297 298 299 300 300 301 302 303 304 305 306 307 307 308 310 312 313 315 316 318 320 321 322 323 324 325 325 325 325 325 325 326 326 326 326 326 326 326 325 326 326 327
296 295 295 295 295 294 294 294 294 294 294 294 294 294 294 294 294 294 294 294 295 296 297 298 298 299 300 300 301 302 303 304 305 306 306 308 309 311 313 314 316 318 319 320 322 323 324 324 324 324 325 325 325 326 326 326 326 326 325 325 325 326 326
295 295 295 295 294 294 294 294 294 294 294 294 294 294 294 294 294 294 294 293 294 295 297 297 298 298 299 299 300 301 301 302 303 304 305 306 307 308 310 312 313 315 316 317 319 321 322 323 323 323 323 323 324 325 326 326 326 326 326 326 326 326 326
295 294 294 294 294 294 294 294 294 294 294 293 293 294 294 294 294 294 293 293 293 294 296 297 297 298 298 298 298 299 300 301 301 302 303 304 305 306 307 309 310 311 312 313 316 318 320 322 322 322 322 322 322 323 325 326 326 326 326 326 327 326 326
295 294 294 294 294 294 294 294 293 293 293 293 293 293 294 294 294 294 293 293 293 294 295 296 296 297 297 298 298 298 298 299 300 301 301 302 303 304 304 306 307 308 309 310 312 314 317 319 321 322 322 322 322 322 324 325 326 326 326 326 326 326 326
295 295 294 294 294 294 293 293 293 293 293 293 293 293 293 294 294 294 293 293 294 294 294 295 296 296 297 297 297 297 297 298 298 299 300 300 301 302 302 304 304 305 306 307 308 309 312 315 318 320 321 321 322 322 322 323 325 326 326 326 325 325 325
296 295 295 294 294 294 294 293 293 293 293 293 293 293 293 293 293 293 293 293 294 294 294 295 295 296 296 297 297 297 297 297 297 298 298 299 300 300 301 301 302 303 304 305 306 307 308 311 313 316 319 321 321 321 321 322 323 324 325 325 325 325 325
296 296 295 295 295 294 294 293 293 293 293 293 293 293 293 293 293 293 293 293 294 294 294 295 295 295 296 297 297 296 296 296 296 297 297 298 298 299 299 300 300 301 302 303 304 305 306 308 310 312 315 319 321 321 321 321 322 323 324 325 325 325 325
296 296 296 295 295 294 294 294 293 293 293 293 293 293 293 293 293 293 293 293 293 294 295 295 296 296 296 297 297 297 296 296 296 296 296 297 297 298 298 299 299 300 300 301 302 303 304 306 308 310 312 316 319 321 321 322 322 323 324 325 325 325 325
297 296 296 296 295 295 294 294 294 293 293 293 293 293 293 293 293 293 294 293 293 293 294 295 296 296 296 297 297 296 296 296 295 295 295 295 296 297 297 298 298 298 299 299 300 301 302 304 306 307 309 312 315 318 320 321 321 322 323 324 324 325 325
297 297 297 296 296 295 294 294 294 293 293 293 293 293 293 293 293 293 294 294 293 293 293 295 296 296 296 297 297 296 296 295 295 295 295 295 295 296 297 297 297 298 298 298 299 300 301 302 304 306 307 309 312 316 319 320 321 322 323 323 323 324 324
297 297 297 297 296 295 295 294 294 294 294 293 293 293 293 293 293 293 294 294 293 293 293 295 296 296 295 296 296 296 296 295 295 294 294 294 295 296 296 296 297 297 298 298 299 300 301 302 303 305 306 308 310 313 316 319 321 322 322 323 323 323 323
297 297 297 297 296 295 295 294 294 294 294 294 293 293 293 293 293 293 293 294 294 293 293 294 295 295 295 295 295 296 295 295 294 294 294 294 295 296 296 296 296 297 297 298 299 299 300 301 302 304 305 307 309 311 314 317 319 321 321 321 322 322 322
297 297 297 297 296 295 295 294 294 294 294 294 293 293 293 293 293 293 293 293 294 293 293 294 294 294 294 294 295 296 295 294 294 294 293 294 295 295 296 296 296 296 297 298 298 299 300 301 301 303 304 305 307 310 313 315 317 318 319 319 319 320 321
297 297 297 297 296 295 295 294 294 294 294 294 294 293 293 293 293 293 293 293 294 293 293 293 294 294 294 294 295 296 295 294 294 293 293 294 295 295 295 296 296 296 297 298 298 299 299 300 300 302 303 305 306 308 310 311 312 313 316 317 317 317 318
Wind_Speed
18 20 21 21 20 19 18 19 20 19 18 16 15 14 13 13 13 13 14 15 15 15 16 16 17 18 18 18 19 19 20 20 21 23 25 25 26 28 28 27 29 30 31 32 32 30 29 30 29 27 27 27 26 26 28 31 31 31 30 30 30 30 27
16 17 19 21 21 22 22 22 22 21 20 19 18 18 17 17 17 16 16 17 17 17 16 16 16 17 19 20 21 22 22 23 23 24 26 26 26 27 27 27 28 29 30 31 31 30 32 33 32 30 30 29 28 27 28 30 31 32 32 32 32 31 29
17 17 18 20 22 23 23 23 23 22 21 21 20 20 20 19 18 18 18 19 20 19 19 18 18 18 20 22 23 23 23 24 25 25 26 28 28 28 27 27 27 28 30 31 31 31 31 32 33 33 31 30 30 30 30 30 31 32 33 34 34 33 31
20 20 21 22 23 24 24 24 23 21 21 23 23 22 20 19 19 19 20 20 21 21 21 21 21 22 23 24 25 25 25 26 27 28 29 30 31 31 29 28 28 29 30 31 32 33 33 33 33 34 34 33 33 33 33 30 29 31 33 34 35 34 33
20 21 22 23 24 24 23 22 21 21 22 23 23 22 21 21 22 22 22 23 23 23 22 22 22 23 25 26 27 27 28 29 30 30 31 32 32 33 32 31 30 30 31 31 31 33 35 35 35 35 35 34 33 33 33 30 26 28 32 33 34 35 34
18 19 20 20 21 19 18 16 15 15 16 17 18 20 21 22 22 23 23 24 24 23 22 22 22 22 24 26 27 28 29 31 32 33 33 34 34 33 33 33 32 31 32 31 31 33 34 34 35 36 35 34 32 31 31 29 26 27 30 33 33 34 35
16 17 17 17 16 14 12 11 10 10 10 10 11 13 17 18 19 20 21 22 23 24 24 24 24 24 25 26 27 29 31 32 33 33 33 33 33 33 32 33 33 32 33 32 32 33 34 33 33 34 35 34 32 30 29 27 26 26 28 30 30 31 33
9 10 11 10 10 9 9 8 7 8 8 8 9 10 13 15 16 17 19 20 22 23 24 25 25 25 25 26 27 29 30 30 29 28 28 28 29 30 31 31 31 31 32 32 31 31 33 33 32 33 34 33 30 27 27 26 25 26 27 27 26 26 28
4 4 5 5 6 7 7 7 7 9 9 10 11 11 13 16 16 16 18 19 21 22 23 23 23 22 22 24 25 26 25 23 23 24 24 25 26 27 27 28 28 29 31 31 29 29 29 30 30 31 33 34 31 27 25 26 26 28 29 27 26 25 25
3 3 4 4 5 5 5 5 5 7 8 9 10 10 12 15 16 16 17 17 19 21 21 20 19 19 19 21 22 22 21 21 21 22 22 24 25 26 26 26 27 28 30 29 28 27 27 28 29 29 30 34 34 30 27 25 27 30 31 30 29 27 24
5 5 5 5 5 5 5 4 4 5 6 8 9 10 12 14 15 16 17 18 19 20 20 19 18 19 19 20 20 20 21 21 22 22 22 23 25 25 26 27 27 29 29 28 26 26 26 27 29 27 27 30 33 32 30 27 27 29 30 30 31 30 27
7 5 5 5 5 5 6 6 5 5 6 7 9 10 12 14 16 17 19 20 21 21 21 21 20 21 21 21 21 21 21 22 22 22 22 23 24 24 25 26 27 27 27 26 25 25 26 26 27 26 26 28 30 31 31 30 29 28 29 30 29 29 28
7 6 5 6 6 6 7 7 7 7 7 8 9 10 12 14 16 18 19 21 22 22 23 23 23 23 23 23 23 21 22 22 23 24 24 23 23 23 24 25 25 25 24 23 23 25 25 25 25 25 26 29 30 30 30 30 30 29 28 27 25 24 25
6 5 6 7 8 8 8 9 9 9 9 10 10 11 12 14 15 18 20 22 23 24 25 25 25 25 24 24 23 22 23 24 25 25 25 24 23 23 24 23 23 23 22 21 22 22 23 24 24 25 25 28 30 29 28 28 29 28 27 26 25 23 23
5 4 5 7 8 8 8 9 9 9 10 11 11 12 12 13 15 17 19 21 22 23 24 24 25 25 25 24 23 23 23 24 26 27 27 25 23 23 25 23 23 22 22 22 23 23 22 22 24 25 24 25 26 27 26 26 26 26 27 27 27 25 24
7 5 6 8 9 9 9 9 9 9 10 11 12 12 13 13 14 15 17 19 20 21 22 23 24 25 25 25 24 23 23 24 24 25 25 24 23 23 25 24 23 22 20 21 21 21 22 22 22 24 24 24 24 25 25 25 26 26 26 26 26 27 27
14 13 13 13 13 13 13 13 12 12 12 12 12 12 13 13 13 14 15 17 19 20 22 22 23 23 24 24 24 23 23 22 22 22 22 22 22 23 24 23 22 21 20 20 20 19 20 21 22 25 27 26 25 25 25 25 26 26 25 25 26 27 28
17 17 16 16 16 17 17 17 16 16 15 15 15 14 14 13 14 15 16 18 20 21 22 24 24 23 23 23 23 23 22 21 21 20 20 20 21 21 23 23 22 20 18 19 20 20 20 21 22 23 26 27 26 26 26 26 26 26 26 26 26 27 28
16 16 16 16 17 17 18 17 17 17 18 18 18 18 17 17 17 17 18 19 20 21 22 23 24 24 24 23 23 23 22 21 21 20 19 20 20 20 21 23 23 20 17 16 16 18 19 20 21 21 21 22 23 25 27 26 26 26 27 27 27 27 28
14 15 16 17 18 18 18 17 17 18 18 18 19 19 19 19 19 19 19 20 20 22 22 23 24 25 25 26 25 25 24 23 22 21 20 20 19 19 19 21 22 20 17 15 14 14 15 16 18 18 18 18 19 21 24 25 26 27 28 29 29 29 30
13 14 16 18 19 20 20 19 19 19 20 20 21 21 21 20 20 20 20 20 21 22 23 24 26 27 28 27 27 26 26 26 24 23 22 21 20 19 18 20 20 18 15 15 15 15 16 16 17 17 18 19 20 20 22 24 27 29 29 29 30 30 30
12 13 16 19 21 22 22 22 22 22 23 23 23 23 22 22 22 22 22 22 22 23 24 25 28 29 29 28 27 27 27 27 27 25 23 22 21 19 19 19 20 20 17 16 17 18 18 18 18 19 18 19 21 22 23 25 27 29 30 30 31 32 32
13 15 19 21 22 23 24 24 24 25 25 25 25 25 25 25 25 25 25 25 24 24 25 26 27 28 28 28 27 26 26 26 27 27 25 24 23 21 20 19 20 21 21 21 21 20 19 18 18 20 20 20 21 22 23 25 26 27 29 31 32 33 34
17 19 21 22 22 23 23 24 25 25 25 26 26 26 26 26 27 27 28 27 26 25 25 26 27 27 28 28 27 26 25 25 25 26 26 25 24 24 22 21 21 21 22 23 23 22 21 20 18 19 21 21 22 22 23 25 26 26 27 29 31 33 34
23 23 23 23 22 22 23 24 24 24 24 25 25 25 26 27 27 27 27 27 27 26 25 26 27 27 28 29 29 27 26 25 25 25 25 25 24 25 24 24 22 22 22 23 24 23 23 23 21 20 21 22 22 22 23 25 26 26 26 27 29 32 33
26 26 25 25 24 24 24 24 24 24 24 24 25 25 26 26 26 26 26 26 26 25 25 25 26 27 28 29 30 29 28 26 25 24 24 24 24 24 25 25 24 23 23 23 24 25 24 25 24 23 22 22 22 23 23 25 26 26 26 26 27 29 30
28 27 27 27 26 26 26 25 24 24 25 26 27 27 27 26 26 25 25 25 25 25 25 25 26 27 27 29 30 31 31 29 27 25 25 24 24 24 24 25 25 25 25 24 24 25 25 25 26 25 24 23 22 22 22 23 24 25 26 26 26 27 27
28 28 28 28 29 30 29 27 26 26 27 28 29 28 28 27 26 25 24 23 23 24 25 25 26 27 27 28 30 31 32 32 31 29 27 25 25 24 24 24 24 25 26 26 25 25 25 25 25 26 25 24 22 22 21 21 21 22 24 26 28 28 28
27 28 28 29 31 31 30 29 28 27 28 28 29 29 29 28 27 26 24 23 22 23 24 24 26 27 27 28 29 31 32 33 34 33 32 30 28 26 25 25 25 25 25 26 25 25 25 25 26 26 26 25 24 22 22 22 21 21 22 25 28 30 30
26 27 28 29 30 31 30 29 28 28 28 29 30 31 30 29 28 27 26 24 22 22 23 23 25 27 28 28 30 32 34 35 36 37 36 34 32 30 28 27 27 26 26 26 26 26 26 26 25 26 27 27 26 24 23 23 22 21 21 23 26 28 28
25 26 27 28 29 30 30 29 28 28 29 30 31 31 31 30 29 29 27 25 22 21 21 22 23 25 27 28 30 33 35 37 38 39 39 37 36 34 32 30 29 28 27 28 28 28 28 27 26 26 26 27 27 26 23 22 23 22 19 19 22 24 25
23 24 25 27 27 28 28 28 28 28 29 30 32 32 31 30 30 30 29 26 23 21 20 20 21 23 26 27 30 32 35 38 39 41 41 40 39 37 35 33 31 30 29 30 30 30 30 30 28 27 26 26 27 26 23 22 24 24 21 19 19 20 22
21 22 23 25 26 27 27 27 26 27 28 30 31 32 32 32 32 32 32 29 25 21 20 19 19 21 24 26 29 31 34 38 40 41 42 41 40 40 38 36 34 32 30 30 30 31 31 31 30 29 27 26 26 25 23 22 24 24 22 19 18 19 21
19 20 21 22 24 25 26 26 26 26 27 29 31 32 33 33 33 34 34 32 27 21 19 19 19 21 23 25 28 31 34 37 39 41 42 40 39 39 39 37 35 33 31 28 28 30 30 30 30 29 27 26 25 24 23 22 22 22 21 20 18 19 19
16 18 19 20 22 24 25 25 25 25 27 28 30 32 33 34 34 35 35 35 31 24 20 19 20 22 24 26 27 30 33 36 39 41 41 39 37 37 37 36 34 32 30 26 25 26 27 28 28 28 27 26 24 21 20 20 19 18 18 18 18 19 19
14 16 17 19 20 22 24 24 24 25 26 28 30 32 33 34 35 35 36 36 34 28 23 21 22 23 25 27 28 28 32 36 38 40 40 37 35 35 34 33 32 30 28 24 22 22 24 26 27 26 25 25 24 19 16 15 14 13 14 15 16 18 19
12 14 15 17 19 21 22 23 23 24 26 28 30 32 33 34 34 35 35 36 36 33 28 25 24 24 26 28 27 28 31 35 37 38 38 35 33 32 31 30 29 28 26 23 20 19 21 23 25 25 23 22 21 17 12 8 7 8 11 13 14 15 17
Wind_Direction
283 284 284 286 287 286 288 291 294 296 299 299 300 303 304 303 300 297 295 296 297 296 297 301 302 302 301 301 299 295 295 293 291 291 293 296 297 296 296 294 290 286 284 283 283 280 276 273 271 269 268 267 260 253 250 247 244 241 240 236 233 232 232
276 277 279 281 281 281 284 287 288 292 295 296 296 295 295 295 295 295 294 294 296 297 297 299 300 300 300 299 298 296 295 294 293 293 293 295 295 295 296 295 295 293 290 287 285 282 275 270 267 265 266 265 259 251 247 244 244 243 239 235 233 233 233
269 269 272 274 275 278 281 283 287 290 292 292 292 292 292 292 291 292 291 291 292 293 293 294 295 298 298 297 298 298 298 299 299 297 295 294 293 293 293 293 294 294 292 287 283 280 276 271 268 266 265 262 259 256 250 246 244 242 238 235 232 232 234
264 265 267 269 271 272 273 276 280 282 285 288 289 289 288 287 286 286 287 288 289 290 291 291 293 295 296 296 298 299 300 299 298 297 295 295 295 295 294 293 291 290 290 286 283 279 275 273 269 265 264 261 259 259 258 255 249 241 238 236 233 232 234
262 264 267 269 271 273 275 276 272 268 271 276 280 281 280 280 281 282 283 284 285 287 289 290 291 292 293 295 296 297 296 295 294 294 293 293 294 294 294 293 291 288 286 285 285 281 275 273 271 266 266 263 257 257 258 256 248 238 235 236 235 235 236
264 267 270 274 277 283 289 291 287 278 274 274 273 271 272 276 279 280 280 281 282 284 287 288 289 289 291 293 293 294 294 293 293 292 291 291 290 290 290 290 289 287 285 284 286 283 275 273 270 266 266 264 259 258 256 251 243 236 233 234 236 237 238
265 270 273 276 280 287 295 303 310 309 303 298 285 277 277 280 283 285 285 285 285 287 288 288 287 287 289 292 294 295 295 295 295 294 292 292 291 291 290 290 289 288 286 284 286 284 279 275 272 268 267 264 259 256 252 246 242 236 231 231 233 236 239
273 279 283 286 283 285 291 296 300 301 298 297 295 295 293 289 288 290 290 290 290 290 290 289 288 289 291 294 296 297 297 298 298 296 294 294 294 292 290 288 286 285 284 284 283 281 279 276 273 272 269 261 252 247 241 236 236 236 233 232 233 235 239
304 309 317 318 306 302 303 300 298 297 298 297 299 301 296 292 294 295 295 296 296 296 295 295 293 292 293 295 296 297 300 301 300 297 296 296 296 296 295 293 288 283 282 282 281 278 276 275 272 270 268 260 249 240 235 231 232 235 235 235 238 238 239
8 14 16 9 351 341 332 320 312 307 308 308 307 308 300 299 305 307 305 304 304 304 303 302 300 297 295 295 296 299 304 306 305 303 302 301 299 298 299 298 295 291 286 281 279 277 275 275 272 268 266 262 253 242 235 232 233 236 236 235 238 239 237
33 41 39 34 19 5 351 339 326 310 307 308 309 311 306 305 311 310 307 306 307 308 307 306 304 300 297 295 297 301 304 305 305 307 308 307 305 301 298 296 295 294 291 284 279 280 278 273 270 266 263 262 256 243 235 233 237 240 241 237 237 238 237
35 41 42 33 19 10 4 358 348 330 321 315 314 313 309 310 314 311 309 309 310 311 311 309 306 302 299 298 300 303 304 304 304 306 308 309 309 306 301 297 294 292 291 287 282 283 280 270 265 265 262 260 255 244 237 237 241 244 244 242 239 239 237
40 39 34 22 9 10 12 6 360 351 337 324 319 318 316 318 319 317 318 319 318 317 316 315 312 309 307 308 309 310 312 311 309 308 308 310 313 314 306 300 296 294 293 290 285 284 281 271 267 268 264 258 252 244 239 240 245 249 248 243 240 239 237
59 50 32 16 9 13 15 11 9 360 344 333 329 327 325 325 324 322 322 323 324 324 322 320 318 315 313 315 316 316 317 316 315 313 310 310 315 317 312 303 297 295 293 292 290 288 282 272 269 270 263 255 250 245 243 244 248 252 250 242 237 237 235
76 56 29 17 14 17 18 17 12 359 351 350 346 340 336 332 328 326 325 325 326 328 328 327 325 321 317 316 316 317 317 318 317 316 313 312 314 314 312 308 302 298 295 293 291 288 284 274 268 269 263 252 246 244 244 246 249 251 250 242 235 235 235
67 53 37 29 24 23 22 18 9 357 354 354 350 347 346 342 336 332 329 329 329 331 332 333 333 331 327 322 319 317 317 319 319 317 316 314 313 310 310 309 306 304 303 298 291 286 284 278 267 264 263 253 245 244 244 245 247 249 249 244 236 237 238
63 57 51 45 39 34 31 28 23 16 9 2 357 354 351 346 341 337 335 335 336 337 338 338 338 337 335 332 328 322 319 319 319 319 318 316 312 309 309 307 303 305 308 303 296 290 287 284 272 260 256 249 244 248 250 248 247 247 248 246 241 240 241
62 58 54 50 44 39 35 33 32 30 27 24 20 15 8 0 354 350 348 347 346 345 343 342 341 341 339 338 336 332 326 321 319 319 319 317 313 308 307 305 299 299 306 306 302 297 290 287 281 268 258 250 245 248 250 249 250 249 249 249 246 244 244
58 54 51 47 44 40 38 36 34 34 33 32 30 27 24 18 13 9 5 1 357 354 351 347 345 344 343 342 340 337 332 327 322 320 319 318 314 308 306 305 299 293 295 301 304 301 294 288 284 277 267 258 254 254 252 249 250 251 251 252 250 248 246
53 50 45 44 44 44 45 43 40 37 33 31 30 28 26 23 21 18 15 11 7 3 359 354 351 350 349 347 344 340 337 332 325 320 318 317 313 307 305 305 300 290 284 288 293 297 295 290 285 278 271 267 265 261 257 253 250 249 250 251 251 249 247
54 48 43 43 47 49 50 47 43 39 34 31 29 26 25 24 22 21 18 16 13 10 6 2 359 356 354 352 348 344 341 336 330 323 317 315 312 308 304 304 303 297 286 281 283 284 283 282 282 278 272 273 274 269 263 259 254 251 248 246 247 248 247
57 49 45 47 48 49 49 47 43 41 37 33 31 28 26 25 23 22 20 17 15 13 11 11 9 4 358 356 353 349 345 339 336 330 322 317 314 309 303 301 304 306 299 286 280 278 273 268 269 271 269 271 274 274 270 267 261 256 251 246 244 246 246
61 55 51 50 49 48 47 44 42 40 38 35 33 31 28 25 23 22 20 18 16 14 15 16 15 10 4 0 357 353 349 345 341 338 332 325 320 315 310 303 301 302 298 291 284 278 271 265 261 263 263 263 266 269 270 270 266 259 254 249 246 245 245
67 60 56 53 51 50 47 45 42 39 37 35 33 31 28 25 23 21 20 18 16 16 16 17 15 13 10 7 2 358 355 351 347 345 342 337 329 322 318 311 305 301 298 295 290 281 273 267 263 262 263 263 262 261 261 266 268 263 257 251 248 246 245
68 62 58 55 54 51 48 45 42 39 36 33 31 30 27 25 22 20 19 18 18 16 16 17 15 13 13 12 8 5 1 357 353 350 347 345 339 333 326 320 315 311 307 304 299 290 279 271 268 266 268 269 268 263 257 257 262 265 261 254 250 248 247
66 63 60 58 55 52 49 46 43 40 37 33 30 29 27 25 23 20 17 17 18 17 14 14 14 13 13 13 11 9 7 3 359 355 352 349 347 343 337 330 325 321 318 311 303 296 287 278 272 268 267 270 272 270 262 254 253 256 258 255 253 251 250
63 61 60 57 54 52 50 48 45 41 37 33 30 28 26 24 23 21 18 16 16 16 14 12 12 11 12 13 12 11 9 7 4 1 357 354 351 348 345 340 336 334 332 326 315 306 298 288 279 272 267 266 269 270 267 261 253 249 249 250 251 251 251
61 59 57 54 52 51 49 47 44 40 37 34 31 28 26 24 24 22 19 15 14 13 13 11 10 10 10 11 12 12 11 9 7 5 2 360 357 353 348 345 344 343 342 340 334 324 313 301 290 281 274 268 267 266 265 264 261 254 250 248 250 250 249
58 56 54 52 51 49 47 44 42 39 36 33 31 29 27 25 24 23 20 16 13 11 10 10 9 9 8 8 9 11 11 10 9 8 6 4 2 359 355 351 348 347 346 344 342 337 327 314 302 292 283 274 268 265 262 262 263 262 257 252 249 248 247
55 54 52 51 50 48 45 43 41 37 34 32 31 29 29 28 26 24 21 17 13 9 7 9 9 8 7 7 8 9 9 9 9 8 7 6 5 3 1 359 354 350 349 347 346 344 338 326 314 304 293 281 273 267 262 262 263 264 263 256 249 245 244
53 51 50 49 47 46 44 42 39 37 34 32 31 30 30 30 28 27 24 19 13 8 5 6 8 8 8 7 8 8 8 7 7 6 5 5 5 4 3 2 359 354 351 350 350 349 346 339 328 317 305 291 280 272 265 263 265 266 267 261 251 244 242
50 48 45 44 44 43 42 41 39 36 34 32 31 30 30 30 29 29 27 23 16 9 5 5 7 9 9 8 8 8 7 6 6 5 3 2 2 2 2 1 360 357 354 351 350 350 349 345 339 331 320 306 291 278 268 263 264 266 269 265 256 248 246
47 43 40 39 40 40 40 40 39 36 34 32 31 29 29 29 29 28 28 26 21 13 8 7 7 10 13 12 9 7 7 6 6 4 3 2 0 0 360 359 359 357 354 351 348 348 349 347 344 339 331 320 304 288 274 264 260 263 267 265 259 255 252
43 40 37 34 34 37 38 38 38 36 34 32 30 29 29 29 28 27 26 25 24 19 13 11 12 12 14 15 11 7 6 8 7 4 2 2 0 360 358 358 357 356 354 350 346 346 348 348 345 342 338 333 319 299 283 272 263 261 264 266 263 260 257
43 40 35 31 30 33 36 36 36 36 34 31 30 29 28 28 28 27 25 24 25 25 20 16 16 15 15 15 11 6 6 9 7 4 3 2 1 1 359 357 357 356 354 351 346 347 349 349 348 347 344 339 329 312 295 282 269 261 262 265 267 266 264
44 39 34 30 28 30 33 34 35 35 33 32 30 28 27 26 26 26 25 24 25 25 23 20 20 20 19 15 10 5 6 8 6 4 5 3 1 1 1 359 359 358 357 354 350 352 355 355 354 354 350 344 338 330 310 285 262 251 256 258 258 260 261
43 37 32 29 26 27 30 32 33 33 33 32 31 28 26 25 25 25 24 23 23 23 21 19 20 22 21 16 10 6 6 7 5 5 6 6 4 3 3 3 2 2 3 3 360 357 0 3 3 2 0 355 349 343 330 300 248 224 237 246 244 244 245